This is the latest recevied weather packets stored in our database for station/object KC1OEK-13. If no packets are shown the sender has not sent any weather packets the latest 10 day(s).
| Time | Temp. | Humidity | Pressure | Rain* | Wind** | Luminosity | Snow |
|---|---|---|---|---|---|---|---|
| 1778180096 | 15° C | 38% | 1009.9 hPa | 0 mm | - | 718 W/m² | - |
| 1778179793 | 16.67° C | 36% | 1009.9 hPa | 0 mm | - | 706 W/m² | - |
| 1778179491 | 16.67° C | 36% | 1010 hPa | 0 mm | - | 720 W/m² | - |
| 1778179189 | 15.56° C | 40% | 1010 hPa | 0 mm | - | 750 W/m² | - |
| 1778178885 | 16.11° C | 38% | 1010 hPa | 0 mm | - | 724 W/m² | - |
| 1778178582 | 16.11° C | 37% | 1010.3 hPa | 0 mm | - | 745 W/m² | - |
| 1778178278 | 16.11° C | 38% | 1010.2 hPa | 0 mm | - | 766 W/m² | - |
| 1778177974 | 16.11° C | 42% | 1010.3 hPa | 0 mm | - | 805 W/m² | - |
| 1778177671 | 15° C | 40% | 1010.3 hPa | 0 mm | - | 747 W/m² | - |
| 1778177368 | 15° C | 37% | 1010.3 hPa | 0 mm | - | 744 W/m² | - |
| 1778177064 | 15° C | 42% | 1010.4 hPa | 0 mm | - | 746 W/m² | - |
| 1778176760 | 14.44° C | 40% | 1010.5 hPa | 0 mm | - | 748 W/m² | - |
| 1778176457 | 15° C | 35% | 1010.3 hPa | 0 mm | - | 753 W/m² | - |
| 1778176155 | 15.56° C | 36% | 1010.5 hPa | 0 mm | - | 757 W/m² | - |
| 1778175852 | 15° C | 40% | 1010.6 hPa | 0 mm | - | 765 W/m² | - |
| 1778175549 | 15.56° C | 38% | 1010.6 hPa | 0 mm | - | 771 W/m² | - |
| 1778175246 | 15° C | 37% | 1010.8 hPa | 0 mm | - | 775 W/m² | - |
| 1778174943 | 15° C | 36% | 1010.9 hPa | 0 mm | - | 772 W/m² | - |
| 1778174639 | 15° C | 38% | 1011.1 hPa | 0 mm | - | 774 W/m² | - |
| 1778174335 | 15° C | 41% | 1011.1 hPa | 0 mm | - | 788 W/m² | - |
| 1778174032 | 15° C | 39% | 1010.8 hPa | 0 mm | - | 821 W/m² | - |
| 1778173729 | 15.56° C | 42% | 1011.1 hPa | 0 mm | - | 821 W/m² | - |
| 1778173426 | 14.44° C | 39% | 1010.9 hPa | 0 mm | - | 778 W/m² | - |
| 1778173122 | 14.44° C | 39% | 1011 hPa | 0 mm | - | 779 W/m² | - |
| 1778172818 | 15.56° C | 36% | 1011.1 hPa | 0 mm | - | 779 W/m² | - |
* Rain latest hour (hover to see other rain measurements)
** Current wind speed in m/s (hover to see current wind gust speed)